Regional Weather Roundup
Issued by NWS

Home | Current Version | Previous Version | Graphics & Text | Print | Product List | Glossary On
Versions: 1 2 3 4 5 6 7 8 9 10 11 12 13 14 15 16 17 18 19 20 21 22 23 24 25 26 27 28 29 30 31 32 33 34 35 36 37 38 39 40 41 42 43 44 45 46 47 48 49 50
000
ASUS43 KLMK 240702
RWRKY
KENTUCKY REGIONAL WEATHER ROUNDUP
NATIONAL WEATHER SERVICE LOUISVILLE KY
200 AM EST FRI FEB 24 2017

NOTE "FAIR" INDICATES FEW OR NO CLOUDS BELOW 12,000 FEET
WITH NO SIGNIFICANT WEATHER AND/OR OBSTRUCTIONS TO VISIBILITY.

KYZ001>023-026-027-061>063-070>075-240800-
WESTERN AND SOUTH CENTRAL KENTUCKY

CITY           SKY/WX    TMP DP  RH WIND       PRES   REMARKS
PADUCAH        MOCLDY    65  55  70 S12G20    29.62S
HENDERSON      CLOUDY    64  54  68 S12G17    29.63F
OWENSBORO      MOCLDY    63  56  78 S10       29.67S
HOPKINSVILLE   PTCLDY    65  56  71 S13       29.69F
BOWLING GREEN  CLOUDY    63  54  72 S10       29.74R
GLASGOW        NOT AVBL
$$

KYZ024-025-028>034-038-045-046-053-240800-
NORTH CENTRAL KENTUCKY

CITY           SKY/WX    TMP DP  RH WIND       PRES   REMARKS
LOUISVILLE/SDF CLOUDY    60  53  77 SE9       29.71S
LOUISVILLE/LOU CLOUDY    63  53  70 S7        29.71F
FORT KNOX      MOCLDY    59  53  81 S8        29.70S
$$

KYZ035>037-039>044-047>052-055>060-089>105-240800-
NORTHEAST KENTUCKY

CITY           SKY/WX    TMP DP  RH WIND       PRES   REMARKS
LEXINGTON      PTCLDY    60  51  72 S10       29.76S
COVINGTON      PTCLDY    57  53  86 S9        29.72S
FRANKFORT      PTCLDY    59  51  75 S6        29.73S
$$

KYZ054-064>069-076>088-106>120-240800-
SOUTHEAST KENTUCKY

CITY           SKY/WX    TMP DP  RH WIND       PRES   REMARKS
JACKSON        CLOUDY    60  50  69 S3        29.81S
LONDON         PTCLDY    56  49  77 SE5       29.80S
SOMERSET       PTCLDY    55  50  82 CALM      29.80S
MIDDLESBORO    PTCLDY    48  48 100 CALM      29.85S
MONTICELLO     MOSUNNY   61  53  75 E6        29.80S
$$




USA.gov is the U.S. government's official web portal to all federal, state and local government web resources and services.